• Join FlightAware (Why Join?)
  • Login
  • US Flag 
04:59AM EST


 

Airport Tracker/Info


-or-


 

Live Flight TrackerFlight Track Log ✈ VOZ1555 ✈ 26-Jul-2013 ✈ YSSY / SYD - YHBA / HVB

Flight Track Log - Related Links

Times and Time Zones

All times are in EDT time to prevent confusion due to time zone crossing. See the VOZ1555 flight status page for this flight to view local times or setup timezone preferences in your user account.

Time Position Orientation Groundspeed Altitude Reporting Facility
EDT Latitude Longitude Course Direction KTS MPH feet Rate Location/Type
08:21PM -33.9410 151.1780 168° South 15 17  Level FlightAware
08:21PM -33.9430 151.1790 157° South 17 20 68 Level FlightAware
08:22PM -33.9450 151.1790 180° South 12 14 73 Level FlightAware
08:22PM -33.9470 151.1790 180° South 16 18 78 Level FlightAware
08:23PM -33.9500 151.1800 165° South 17 20 87 Level FlightAware
08:23PM -33.9510 151.1810 140° Southeast 15 17 97 Level FlightAware
08:24PM -33.9500 151.1840 68° East 15 17 105 Level FlightAware
08:24PM -33.9520 151.1860 140° Southeast 22 25 118 Level FlightAware
08:24PM -33.9530 151.1870 140° Southeast 25 29 133 Level FlightAware
08:25PM -33.9550 151.1880 157° South 30 35 140 Level FlightAware
08:25PM -33.9580 151.1880 180° South 35 40 150 Level FlightAware
08:25PM -33.9600 151.1890 157° South 39 45 167 Level FlightAware
08:26PM -33.9650 151.1900 171° South 35 40 182 Level FlightAware
08:26PM -33.9690 151.1910 168° South 23 26 214 Level FlightAware
08:27PM -33.9710 151.1920 157° South 17 20 275 Level FlightAware
08:27PM -33.9700 151.1940 59° Northeast 19 22 375 Level FlightAware
08:28PM -33.9580 151.1900 345° North 146 168 556 Level FlightAware
08:28PM -33.9400 151.1870 352° North 161 185 500 1,467 Climbing FlightAware
08:28PM -33.9270 151.1960 30° Northeast 180 207 1,100 1,650 Climbing FlightAware
08:29PM -33.9140 151.2110 44° Northeast 200 230 1,600 1,560 Climbing FlightAware
08:29PM -33.8930 151.2360 44° Northeast 225 259 2,400 2,229 Climbing FlightAware
08:29PM -33.8892 151.2395 44° Northeast 216 249 2,900 1,579 Climbing Aus ATC (RADAR)
08:30PM -33.8800 151.2490 40° Northeast 231 266 2,900 486 Level FlightAware
08:30PM -33.8590 151.2780 49° Northeast 270 311 3,200 837 Climbing FlightAware
08:30PM -33.8430 151.3020 51° Northeast 293 337 3,500 833 Climbing FlightAware
08:31PM -33.8330 151.3180 53° Northeast 299 344 3,700 977 Climbing FlightAware
08:31PM -33.8080 151.3560 52° Northeast 297 342 4,200 1,200 Climbing FlightAware
08:31PM -33.7930 151.3780 51° Northeast 299 344 4,600 2,681 Climbing FlightAware
08:32PM -33.7700 151.4150 53° Northeast 291 335 6,300 3,522 Climbing FlightAware
08:32PM -33.7560 151.4350 50° Northeast 290 334 7,300 3,938 Climbing FlightAware
08:32PM -33.7390 151.4610 52° Northeast 291 335 8,400 3,070 Climbing FlightAware
08:33PM -33.7200 151.4900 52° Northeast 297 342 9,500 2,160 Climbing FlightAware
08:34PM -33.6730 151.5610 52° Northeast 337 388 11,100 2,440 Climbing FlightAware
08:34PM -33.6300 151.6260 52° Northeast 343 395 13,200 2,857 Climbing FlightAware
08:35PM -33.5902 151.6825 52° Northeast 350 403 15,100 2,455 Climbing Aus ATC (RADAR)
08:35PM -33.5830 151.6890 52° Northeast 348 400 15,000 2,348 Descending FlightAware
08:36PM -33.5180 151.7180 20° North 340 391 16,900 2,466 Climbing FlightAware
08:36PM -33.4750 151.7320 15° North 347 399 18,000 2,289 Climbing FlightAware
08:37PM -33.3938 151.7576 15° North 353 406 19,800 1,787 Climbing Aus ATC (RADAR)
08:37PM -33.3980 151.7570 15° North 364 419 19,400 1,814 Descending FlightAware
08:38PM -33.3290 151.7790 15° North 365 420 21,100 2,250 Climbing FlightAware
08:38PM -33.2660 151.7990 15° North 370 426 22,400 2,029 Climbing FlightAware
08:39PM -33.2182 151.8144 15° North 375 432 23,400 1,565 Climbing Aus ATC (RADAR)
08:39PM -33.1910 151.8230 15° North 381 438 23,600 1,627 Climbing FlightAware
08:40PM -33.1170 151.8470 15° North 386 444 25,000 1,735 Climbing FlightAware
08:40PM -33.0470 151.8700 15° North 391 450 26,000 1,615 Climbing FlightAware
08:41PM -32.9800 151.8910 15° North 393 452 27,100 1,417 Climbing FlightAware
08:42PM -32.9200 151.9110 16° North 402 463 27,700 1,050 Climbing FlightAware
08:42PM -32.8340 151.9380 15° North 415 478 28,500 1,295 Climbing FlightAware
08:43PM -32.7496 151.9648 15° North 413 475 29,600 1,116 Climbing Aus ATC (RADAR)
08:43PM -32.7540 151.9640 15° North 422 486 29,300 391 Descending FlightAware
08:44PM -32.6660 151.9910 14° North 431 496 29,900 815 Climbing FlightAware
08:45PM -32.5980 152.0130 15° North 436 502 30,400 825 Climbing FlightAware
08:45PM -32.5090 152.0410 15° North 446 513 31,000 1,084 Climbing FlightAware
08:46PM -32.4259 152.0672 15° North 446 513 31,900 714 Climbing Aus ATC (RADAR)
08:46PM -32.4260 152.0670 15° North 452 520 31,500 857 Descending FlightAware
08:46PM -32.3548 152.0894 15° North 449 517 32,400 857 Climbing Aus ATC (RADAR)
08:47PM -32.3380 152.0950 15° North 456 525 32,100 800 Descending FlightAware
08:47PM -32.2632 152.1186 15° North 452 520 33,000 933 Climbing Aus ATC (RADAR)
08:47PM -32.2460 152.1240 15° North 458 527 32,800 250 Descending FlightAware
08:48PM -32.1710 152.1480 15° North 463 533 33,200 1,000 Climbing FlightAware
08:49PM -32.0870 152.1740 15° North 457 526 34,100 795 Climbing FlightAware
08:49PM -31.9990 152.2020 15° North 467 537 34,300 506 Climbing FlightAware
08:50PM -31.9120 152.2290 15° North 471 542 34,800 1,000 Climbing FlightAware
08:51PM -31.8263 152.2555 15° North 469 540 35,600 652 Climbing Aus ATC (RADAR)
08:51PM -31.8190 152.2580 15° North 472 543 35,300 923 Descending FlightAware
08:51PM -31.7501 152.2796 15° North 468 539 36,200 732 Climbing Aus ATC (RADAR)
08:52PM -31.7270 152.2870 15° North 474 545 35,800 391 Descending FlightAware
08:52PM -31.6464 152.3116 15° North 471 542 36,500 558 Climbing Aus ATC (RADAR)
08:52PM -31.6380 152.3140 15° North 476 548 36,200  Descending FlightAware
08:53PM -31.5430 152.3440 15° North 478 550 36,500 511 Climbing FlightAware
08:54PM -31.4380 152.3770 15° North 477 549 37,000 349 Climbing FlightAware
08:54PM -31.3570 152.4020 15° North 484 557 37,000 615 Level FlightAware
08:54PM -31.3474 152.4047 15° North 481 554 37,400  Climbing Aus ATC (RADAR)
08:55PM -31.2790 152.4260 15° North 491 565 37,000 -329 Descending FlightAware
08:56PM -31.1960 152.4510 15° North 494 568 37,000 585 Level FlightAware
08:56PM -31.1823 152.4555 15° North 493 567 37,400  Climbing Aus ATC (RADAR)
08:56PM -31.0960 152.4820 15° North 493 567 37,000 -293 Descending FlightAware
08:57PM -31.0150 152.5070 15° North 493 567 37,000  Level FlightAware
08:58PM -30.9220 152.5340 14° North 493 567 37,000  Level FlightAware
08:59PM -30.8550 152.5530 14° North 493 567 37,000 329 Level FlightAware
08:59PM -30.7387 152.5934 14° North 490 564 37,400  Climbing Aus ATC (RADAR)
08:59PM -30.7640 152.5800 14° North 493 567 37,000 -511 Descending FlightAware
09:00PM -30.6970 152.5990 14° North 493 567 37,000  Level FlightAware
09:01PM -30.6270 152.6190 14° North 493 567 37,000 571 Level FlightAware
09:01PM -30.5648 152.6584 14° North 488 562 37,400  Climbing Aus ATC (RADAR)
09:01PM -30.4580 152.6960 21° North 495 570 37,000 -308 Descending FlightAware
09:02PM -30.3700 152.7280 17° North 493 567 37,000  Level FlightAware
09:02PM -30.3000 152.7530 17° North 493 567 37,000  Level FlightAware
09:03PM -30.1950 152.7910 17° North 493 567 37,000  Level FlightAware
09:04PM -30.0990 152.8260 18° North 493 567 37,000 270 Level FlightAware
09:05PM -30.0014 152.8598 18° North 490 564 37,400  Climbing Aus ATC (RADAR)
09:05PM -30.0040 152.8600 18° North 490 564 37,000  Descending FlightAware
09:05PM -29.9217 152.8881 18° North 487 560 37,400  Climbing Aus ATC (RADAR)
09:06PM -29.8790 152.9040 18° North 493 567 37,000 -480 Descending FlightAware
09:06PM -29.7970 152.9330 18° North 493 567 37,000 558 Level FlightAware
09:06PM -29.7841 152.9375 18° North 492 566 37,400  Climbing Aus ATC (RADAR)
09:07PM -29.6950 152.9700 17° North 494 568 37,000  Descending FlightAware
09:08PM -29.6392 152.9897 17° North 486 559 37,400  Climbing Aus ATC (RADAR)
09:08PM -29.6090 153.0000 17° North 493 567 37,000  Descending FlightAware
09:08PM -29.5119 153.0346 17° North 492 566 37,400  Climbing Aus ATC (RADAR)
09:08PM -29.5100 153.0360 17° North 489 563 37,000 -649 Descending FlightAware
09:09PM -29.4350 153.0620 17° North 484 557 37,000  Level FlightAware
09:10PM -29.3520 153.0910 17° North 483 556 37,000  Level FlightAware
09:10PM -29.2680 153.1210 17° North 485 558 37,000  Level FlightAware
09:11PM -29.1780 153.1520 17° North 486 559 37,000  Level FlightAware
09:12PM -29.0880 153.1840 17° North 485 558 37,000  Level FlightAware
09:12PM -28.9960 153.2160 17° North 484 557 37,000  Level FlightAware
09:13PM -28.9270 153.2410 18° North 485 558 37,000 375 Level FlightAware
09:14PM -28.8571 153.2646 18° North 484 557 37,400  Climbing Aus ATC (RADAR)
09:14PM -28.8310 153.2740 18° North 484 557 37,000 -444 Descending FlightAware
09:14PM -28.7450 153.3040 17° North 484 557 37,000  Level FlightAware
09:15PM -28.6650 153.3320 17° North 484 557 37,000  Level FlightAware
09:16PM -28.5750 153.3630 17° North 474 545 37,000 304 Level FlightAware
09:16PM -28.5102 153.3815 17° North 476 548 37,400  Climbing Aus ATC (RADAR)
09:17PM -28.4470 153.4080 17° North 481 554 37,000 -387 Descending FlightAware
09:17PM -28.3610 153.4380 17° North 478 550 37,000  Level FlightAware
09:18PM -28.2800 153.4650 16° North 476 548 37,000  Level FlightAware
09:19PM -28.1820 153.4970 16° North 472 543 37,000  Level FlightAware
09:19PM -28.1000 153.5030 North 463 533 37,000  Level FlightAware
09:20PM -28.0200 153.5020 359° North 465 535 37,000  Level FlightAware
09:21PM -27.9270 153.5010 359° North 467 537 37,000  Level FlightAware
09:21PM -27.8380 153.5000 359° North 466 536 37,000  Level FlightAware
09:22PM -27.7530 153.4990 359° North 465 535 37,000 312 Level FlightAware
09:23PM -27.6694 153.4989 359° North 464 534 37,400  Climbing Aus ATC (RADAR)
09:23PM -27.6540 153.4980 359° North 466 536 37,000 -500 Descending FlightAware
09:24PM -27.5690 153.4970 359° North 465 535 37,000 312 Level FlightAware
09:24PM -27.4859 153.4968 359° North 465 535 37,400  Climbing Aus ATC (RADAR)
09:24PM -27.4700 153.4960 359° North 466 536 37,000 -500 Descending FlightAware
09:25PM -27.3830 153.4960 360° North 466 536 37,000  Level FlightAware
09:26PM -27.2980 153.4950 359° North 466 536 37,000 312 Level FlightAware
09:26PM -27.2166 153.4939 359° North 464 534 37,400  Climbing Aus ATC (RADAR)
09:26PM -27.2150 153.4940 359° North 465 535 37,000 -1,650 Descending FlightAware
09:27PM -27.1302 153.4930 359° North 467 537 36,300 -1,867 Descending Aus ATC (RADAR)
09:27PM -27.1140 153.4930 359° North 466 536 35,600 -3,000 Descending FlightAware
09:28PM -27.0270 153.4920 359° North 462 532 33,900 -2,471 Descending FlightAware
09:28PM -26.9290 153.4910 359° North 474 545 32,100 -2,471 Descending FlightAware
09:29PM -26.8440 153.4900 359° North 468 539 30,400 -2,325 Descending FlightAware
09:30PM -26.7560 153.4880 359° North 444 511 29,000 -1,571 Descending FlightAware
09:30PM -26.7529 153.4889 359° North 459 528 29,300  Climbing Aus ATC (RADAR)
09:31PM -26.6740 153.4680 348° North 382 440 29,000 -434 Descending FlightAware
09:31PM -26.6100 153.4460 343° North 349 402 28,700 -1,800 Descending FlightAware
09:32PM -26.5450 153.4230 343° North 373 429 26,600 -2,571 Descending FlightAware
09:32PM -26.5430 153.4223 343° North 363 418 26,900 -3,450 Climbing Aus ATC (RADAR)
09:33PM -26.4770 153.4000 343° North 390 449 24,300 -3,769 Descending FlightAware
09:33PM -26.4070 153.3750 342° North 401 461 22,000 -2,925 Descending FlightAware
09:34PM -26.3390 153.3510 342° North 390 449 20,400 -2,250 Descending FlightAware
09:35PM -26.2720 153.3280 343° North 375 432 19,000 -1,950 Descending FlightAware
09:35PM -26.2060 153.3050 343° North 364 419 17,800 -1,636 Descending FlightAware
09:36PM -26.1462 153.2867 343° North 359 413 16,900 -1,950 Descending Aus ATC (RADAR)
09:36PM -26.1430 153.2840 343° North 359 413 16,500 -2,375 Descending FlightAware
09:37PM -26.0700 153.2580 342° North 352 405 15,000 -1,906 Descending FlightAware
09:37PM -26.0080 153.2370 343° North 348 400 13,800 -1,800 Descending FlightAware
09:38PM -25.9480 153.2160 343° North 345 397 12,600 -1,275 Descending FlightAware
09:39PM -25.8920 153.1960 342° North 341 392 12,100 -1,875 Descending FlightAware
09:39PM -25.8270 153.1750 342° North 326 375 10,100 -2,488 Descending FlightAware
09:39PM -25.8250 153.1761 342° North 329 379 10,400 -1,000 Climbing Aus ATC (RADAR)
09:40PM -25.7920 153.1630 343° North 326 375 9,700 -1,111 Descending FlightAware
09:40PM -25.7540 153.1470 339° North 299 344 9,400 -964 Descending FlightAware
09:41PM -25.7230 153.1280 331° Northwest 297 342 8,800 -1,286 Descending FlightAware
09:41PM -25.6846 153.1066 331° Northwest 294 338 8,200 -1,692 Descending Aus ATC (RADAR)
09:41PM -25.6740 153.0990 331° Northwest 291 335 7,700 -2,069 Descending FlightAware
09:42PM -25.6550 153.0890 335° Northwest 290 334 7,200 -612 Descending FlightAware
09:42PM -25.6260 153.0750 336° Northwest 290 334 7,200 -1,319 Level FlightAware
09:43PM -25.5412 153.0313 336° Northwest 279 321 5,200 -1,748 Descending Aus ATC (RADAR)
09:44PM -25.4946 153.0064 334° Northwest 280 322 4,200 -1,500 Descending Aus ATC (RADAR)